Télécharger nos applis :
Date Heure Temperature Direction Vent Rafales Pluie Pression Humidité Condition
MAR.
23
02:00 14°C 5 5 --- 1023 hPa 88% Ensoleillé / Ciel clair
05:00 13°C 5 5 --- 1023 hPa 91% Ensoleillé / Ciel clair
08:00 15°C 5 5 --- 1023 hPa 86% Ensoleillé / Ciel clair
11:00 20°C 5 5 --- 1023 hPa 70% Ensoleillé / Ciel clair
14:00 24°C 10 10 --- 1022 hPa 61% Ensoleillé / Ciel clair
17:00 26°C 10 10 --- 1021 hPa 56% Ensoleillé / Ciel clair
20:00 24°C 10 15 --- 1021 hPa 67% Ensoleillé / Ciel clair
23:00 18°C 5 5 --- 1022 hPa 84% Ensoleillé / Ciel clair
MER.
24
02:00 16°C 5 5 --- 1022 hPa 92% Ensoleillé / Ciel clair
05:00 15°C 5 5 --- 1021 hPa 95% Ensoleillé / Ciel clair
08:00 16°C 5 10 --- 1021 hPa 93% Ciel voilé
11:00 21°C 10 10 --- 1021 hPa 75% Peu nuageux
14:00 25°C 10 10 --- 1019 hPa 59% Ciel voilé
17:00 26°C 10 10 --- 1018 hPa 51% Ensoleillé / Ciel clair
20:00 24°C 5 10 --- 1017 hPa 60% Ensoleillé / Ciel clair
23:00 18°C 5 10 --- 1017 hPa 67% Ensoleillé / Ciel clair
JEU.
25
02:00 16°C 5 5 --- 1017 hPa 76% Ensoleillé / Ciel clair
05:00 14°C 5 5 --- 1016 hPa 83% Ensoleillé / Ciel clair
08:00 15°C 5 5 --- 1016 hPa 83% Ensoleillé / Ciel clair
11:00 21°C 5 5 --- 1015 hPa 64% Ensoleillé / Ciel clair
14:00 25°C 10 10 --- 1014 hPa 47% Ensoleillé / Ciel clair
17:00 27°C 5 5 --- 1012 hPa 40% Ensoleillé / Ciel clair
20:00 26°C 5 5 --- 1011 hPa 52% Ensoleillé / Ciel clair
23:00 19°C 0 0 --- 1012 hPa 57% Ensoleillé / Ciel clair
VEN.
26
02:00 17°C 5 5 --- 1012 hPa 69% Ensoleillé / Ciel clair
05:00 15°C 5 0 --- 1012 hPa 78% Ensoleillé / Ciel clair
08:00 16°C 0 0 --- 1012 hPa 80% Ensoleillé / Ciel clair
11:00 22°C 5 0 --- 1013 hPa 62% Ensoleillé / Ciel clair
14:00 26°C 0 0 --- 1012 hPa 49% Ensoleillé / Ciel clair
17:00 28°C 5 0 --- 1011 hPa 44% Ensoleillé / Ciel clair
20:00 27°C 5 5 --- 1011 hPa 57% Ensoleillé / Ciel clair
23:00 19°C 15 15 --- 1013 hPa 67% Couvert
SAM.
27
02:00 16°C 10 10 --- 1013 hPa 83% Peu nuageux
05:00 15°C 5 5 --- 1013 hPa 91% Ciel voilé
08:00 16°C 5 10 --- 1014 hPa 88% Ensoleillé / Ciel clair
11:00 21°C 5 5 --- 1014 hPa 70% Ensoleillé / Ciel clair
14:00 24°C 10 10 --- 1015 hPa 59% Ciel voilé
17:00 24°C 15 15 --- 1015 hPa 63% Couvert
20:00 21°C 15 25 --- 1017 hPa 69% Couvert
23:00 19°C 15 25 --- 1020 hPa 75% Couvert
DIM.
28
02:00 15°C 10 20 0.1 mm 1021 hPa 86% Couvert
05:00 14°C 5 10 --- 1021 hPa 89% Couvert
08:00 15°C 5 10 --- 1022 hPa 88% Couvert
11:00 19°C 10 10 --- 1021 hPa 75% Couvert
14:00 23°C 10 10 --- 1020 hPa 60% Couvert
17:00 25°C 10 10 --- 1019 hPa 54% Peu nuageux
20:00 24°C 5 10 --- 1018 hPa 64% Peu nuageux
23:00 19°C 10 10 0.5 mm 1019 hPa 81% Averses de pluie faible
LUN.
29
02:00 17°C 5 5 0.4 mm 1019 hPa 83% Averses de pluie faible
05:00 16°C 5 5 0.4 mm 1019 hPa 85% Ciel voilé
08:00 17°C 5 5 0.2 mm 1019 hPa 84% Ciel voilé
11:00 22°C 5 0 --- 1019 hPa 67% Ensoleillé / Ciel clair
14:00 26°C 5 5 --- 1018 hPa 55% Ensoleillé / Ciel clair
17:00 28°C 5 5 --- 1016 hPa 51% Ensoleillé / Ciel clair
20:00 27°C 5 5 --- 1016 hPa 60% Ensoleillé / Ciel clair
23:00 22°C 0 0 --- 1017 hPa 68% Ensoleillé / Ciel clair
MAR.
30
02:00 20°C 0 0 --- 1017 hPa 75% Ensoleillé / Ciel clair
05:00 19°C 0 0 --- 1016 hPa 76% Ensoleillé / Ciel clair
08:00 20°C 5 5 --- 1016 hPa 76% Ensoleillé / Ciel clair
11:00 25°C 5 5 --- 1016 hPa 58% Ensoleillé / Ciel clair
14:00 29°C 5 5 --- 1015 hPa 47% Ensoleillé / Ciel clair
17:00 31°C 5 5 --- 1014 hPa 43% Ensoleillé / Ciel clair
20:00 29°C 5 5 --- 1013 hPa 55% Ensoleillé / Ciel clair
23:00 24°C 5 5 --- 1013 hPa 57% Ensoleillé / Ciel clair
MER.
31
02:00 22°C 5 5 --- 1013 hPa 63% Ensoleillé / Ciel clair
05:00 21°C 0 0 --- 1012 hPa 68% Ensoleillé / Ciel clair
08:00 21°C 5 5 --- 1013 hPa 75% Ensoleillé / Ciel clair
11:00 25°C 5 5 --- 1013 hPa 63% Ensoleillé / Ciel clair
14:00 30°C 5 5 --- 1013 hPa 49% Ensoleillé / Ciel clair
17:00 32°C 5 10 --- 1012 hPa 44% Ensoleillé / Ciel clair
20:00 22°C 20 15 2.5 mm 1014 hPa 85% Ciel voilé
23:00 18°C 10 15 2.6 mm 1017 hPa 92% Ciel voilé
JEU.
01
02:00 18°C 15 15 1.3 mm 1018 hPa 92% Peu nuageux
05:00 17°C 10 15 --- 1018 hPa 90% Couvert
08:00 17°C 10 15 --- 1019 hPa 84% Couvert
11:00 19°C 15 20 --- 1019 hPa 75% Couvert
14:00 21°C 10 15 --- 1019 hPa 65% Couvert
17:00 26°C 10 15 --- 1017 hPa 48% Couvert
20:00 23°C 10 20 --- 1018 hPa 61% Couvert
23:00 17°C 10 20 --- 1020 hPa 66% Ciel voilé